Washington, NE

10:21 PM CST on February 11, 2016 (GMT -0600)
Blair Municipal

Weather History for KBTA - June, 2013

Change the Weather History Date:

Tuesday, June 18, 2013

  Actual Average (KOMA) Record (KOMA)
Temperature  
Mean Temperature 72 °F 73 °F  
Max Temperature 81 °F 84 °F 105 °F (1953)
Min Temperature 63 °F 62 °F 45 °F (1876)
Degree Days  
Heating Degree Days 0 0  
Month to date heating degree days 15  
Since 1 June heating degree days 15  
Since 1 July heating degree days 6165  
Cooling Degree Days 7 8  
Month to date cooling degree days 111  
Year to date cooling degree days 193  
Since 1 June cooling degree days 111  
Growing Degree Days 22 (Base 50)    
Moisture  
Dew Point 57 °F    
Average Humidity 63    
Maximum Humidity 89    
Minimum Humidity 39    
Precipitation  
Precipitation 0.26 in 0.13 in 2.17 in (1923)
Month to date precipitation 2.64  
Year to date precipitation 13.92  
Snow  
Snow 0.00 in 0.00 in - ()
Month to date snowfall 0.0  
Since 1 July snowfall 26.4  
Snow Depth -    
Sea Level Pressure  
Sea Level Pressure 30.03 in    
Wind  
Wind Speed 4 mph (NE)    
Max Wind Speed 9 mph    
Max Gust Speed 17 mph    
Visibility 10 miles    
Events Rain , Thunderstorm    
T = Trace of Precipitation, MM = Missing Value Source: NWS Daily Summary

Daily Weather History Graph

Daily Weather History Graph

Search for Another Location

Airport or City:

Trip Planner

Search our weather history database for the weather conditions in past years. The results will help you decide how hot, cold, wet, or windy it might be!

Date:

Astronomy

Jun. 18, 2013 Rise Set
Actual Time 5:50 AM CDT 9:00 PM CDT
Civil Twilight 5:16 AM CDT 9:34 PM CDT
Nautical Twilight 4:33 AM CDT 10:18 PM CDT
Astronomical Twilight 3:40 AM CDT 11:10 PM CDT
Moon 3:44 PM CDT (6/18) 2:02 AM CDT (6/18)
Length of Visible Light 16h 18m
Length of Day
15h 10m
Waxing Gibbous, 71% of the Moon is Illuminated
Jun 18
Waxing Gibbous
Jun 23
Full
Jun 29
Last Quarter
Jul 8
New
Jul 15
First Quarter

Hourly Weather History & Observations

Time (CDT) Temp. Heat Index Dew Point Humidity Pressure Visibility Wind Dir Wind Speed Gust Speed Precip Events Conditions
12:15 AM 68.9 °F - 54.5 °F 60% 30.02 in 10.0 mi North 6.9 mph - N/A   Clear
12:35 AM 69.1 °F - 54.1 °F 59% 30.02 in 10.0 mi North 6.9 mph - N/A   Clear
12:55 AM 69.3 °F - 53.4 °F 57% 30.02 in 10.0 mi North 9.2 mph - N/A   Clear
1:15 AM 69.4 °F - 52.9 °F 56% 30.01 in 10.0 mi North 8.1 mph - N/A   Clear
1:35 AM 67.6 °F - 53.2 °F 60% 30.02 in 10.0 mi North 8.1 mph - N/A   Clear
1:55 AM 68.2 °F - 53.1 °F 58% 30.02 in 10.0 mi North 6.9 mph - N/A   Clear
2:15 AM 68.0 °F - 53.1 °F 59% 30.02 in 10.0 mi North 6.9 mph - N/A   Clear
2:35 AM 67.1 °F - 53.2 °F 61% 30.02 in 10.0 mi North 6.9 mph - N/A   Clear
2:55 AM 67.1 °F - 53.6 °F 62% 30.02 in 10.0 mi North 5.8 mph - N/A   Clear
3:15 AM 67.3 °F - 53.8 °F 62% 30.01 in 10.0 mi North 5.8 mph - N/A   Clear
3:35 AM 67.1 °F - 53.8 °F 62% 30.02 in 10.0 mi North 4.6 mph - N/A   Scattered Clouds
3:55 AM 67.5 °F - 54.1 °F 62% 30.01 in 10.0 mi North 5.8 mph - N/A   Scattered Clouds
4:15 AM 67.1 °F - 53.8 °F 62% 30.01 in 10.0 mi North 5.8 mph - N/A   Scattered Clouds
4:35 AM 66.9 °F - 54.0 °F 63% 30.02 in 10.0 mi NNW 4.6 mph - N/A   Clear
4:55 AM 67.1 °F - 53.6 °F 62% 30.02 in 10.0 mi NNW 3.5 mph - N/A   Clear
5:15 AM 66.2 °F - 53.6 °F 64% 30.01 in 10.0 mi Calm Calm - N/A   Clear
5:35 AM 64.9 °F - 54.3 °F 68% 30.03 in 10.0 mi Calm Calm - N/A   Mostly Cloudy
5:55 AM 65.1 °F - 55.8 °F 72% 30.03 in 10.0 mi Calm Calm - N/A   Overcast
6:15 AM 66.2 °F - 54.9 °F 67% 30.05 in 10.0 mi NNW 9.2 mph 17.3 mph N/A Rain , Thunderstorm Light Thunderstorms and Rain
6:35 AM 64.0 °F - 56.7 °F 77% 30.05 in 10.0 mi NNE 6.9 mph 17.3 mph N/A Rain Rain
6:55 AM 63.1 °F - 57.4 °F 81% 30.05 in 10.0 mi East 3.5 mph - N/A   Scattered Clouds
7:15 AM 63.5 °F - 58.1 °F 83% 30.04 in 10.0 mi SE 4.6 mph - N/A   Scattered Clouds
7:35 AM 64.4 °F - 58.3 °F 80% 30.05 in 10.0 mi South 3.5 mph - N/A   Mostly Cloudy
7:55 AM 64.4 °F - 58.6 °F 82% 30.08 in 10.0 mi NNW 5.8 mph - N/A   Overcast
8:15 AM 63.9 °F - 59.4 °F 85% 30.07 in 10.0 mi ENE 3.5 mph - 0.01 in Rain Light Rain
8:35 AM 64.4 °F - 60.3 °F 86% 30.06 in 10.0 mi SE 4.6 mph - 0.01 in   Mostly Cloudy
8:55 AM 65.5 °F - 59.2 °F 80% 30.08 in 10.0 mi Calm Calm - 0.01 in   Mostly Cloudy
9:15 AM 65.7 °F - 60.4 °F 83% 30.08 in 10.0 mi Calm Calm - N/A Rain Light Rain
9:35 AM 64.9 °F - 60.8 °F 86% 30.09 in 10.0 mi Calm Calm - N/A Rain Light Rain
9:55 AM 64.8 °F - 61.3 °F 89% 30.06 in 10.0 mi SE 3.5 mph - 0.02 in Rain Light Rain
10:15 AM 66.2 °F - 61.0 °F 83% 30.06 in 10.0 mi South 4.6 mph - N/A Rain Light Rain
10:35 AM 65.7 °F - 60.4 °F 83% 30.07 in 7.0 mi West 3.5 mph - 0.01 in Rain Light Rain
10:55 AM 64.2 °F - 60.8 °F 89% 30.06 in 0.8 mi SSE 6.9 mph - 0.23 in Rain Rain
11:15 AM 65.5 °F - 61.3 °F 86% 30.08 in 10.0 mi Calm Calm - N/A   Overcast
11:35 AM 66.4 °F - 61.2 °F 83% 30.09 in 10.0 mi WSW 9.2 mph - N/A   Overcast
11:55 AM 66.7 °F - 61.3 °F 83% 30.08 in 10.0 mi Calm Calm - N/A   Overcast
12:15 PM 68.5 °F - 61.9 °F 79% 30.08 in 10.0 mi West 5.8 mph - N/A   Mostly Cloudy
12:35 PM 69.1 °F - 61.5 °F 77% 30.07 in 10.0 mi SW 4.6 mph - N/A   Scattered Clouds
12:55 PM 70.9 °F - 61.2 °F 71% 30.06 in 10.0 mi Calm Calm - N/A   Mostly Cloudy
1:15 PM 73.2 °F - 62.4 °F 69% 30.06 in 10.0 mi Calm Calm - N/A   Scattered Clouds
1:35 PM 74.1 °F - 62.1 °F 66% 30.05 in 10.0 mi Calm Calm - N/A   Clear
1:55 PM 75.2 °F - 61.0 °F 61% 30.05 in 10.0 mi Calm Calm - N/A   Clear
2:15 PM 76.6 °F - 61.3 °F 59% 30.05 in 10.0 mi Calm Calm - N/A   Scattered Clouds
2:35 PM 77.0 °F - 58.8 °F 53% 30.05 in 10.0 mi NW 3.5 mph - N/A   Scattered Clouds
2:55 PM 78.6 °F - 59.4 °F 51% 30.04 in 10.0 mi Calm Calm - N/A   Scattered Clouds
3:15 PM 78.3 °F - 56.1 °F 46% 30.04 in 10.0 mi Calm Calm - N/A   Scattered Clouds
3:35 PM 79.5 °F - 57.6 °F 47% 30.04 in 10.0 mi South 3.5 mph - N/A   Scattered Clouds
3:55 PM 79.7 °F - 53.6 °F 40% 30.03 in 10.0 mi Calm Calm - N/A   Scattered Clouds
4:15 PM 80.2 °F 80.4 °F 55.8 °F 43% 30.03 in 10.0 mi SE 4.6 mph - N/A   Clear
4:35 PM 80.6 °F 80.5 °F 55.6 °F 42% 30.02 in 10.0 mi SSW 3.5 mph - N/A   Clear
4:55 PM 81.1 °F 81.3 °F 57.9 °F 45% 30.01 in 10.0 mi Calm Calm - N/A   Clear
5:15 PM 80.4 °F 80.3 °F 54.5 °F 41% 30.00 in 10.0 mi Calm Calm - N/A   Clear
5:35 PM 80.8 °F 80.7 °F 55.6 °F 42% 30.00 in 10.0 mi SSE 4.6 mph - N/A   Clear
5:55 PM 80.8 °F 80.4 °F 54.0 °F 39% 30.00 in 10.0 mi Calm Calm - N/A   Clear
6:15 PM 81.1 °F 80.9 °F 55.0 °F 41% 29.99 in 10.0 mi SE 3.5 mph - N/A   Clear
6:35 PM 80.6 °F 80.4 °F 54.3 °F 40% 29.98 in 10.0 mi Calm Calm - N/A   Clear
6:55 PM 80.6 °F 80.4 °F 54.0 °F 40% 29.99 in 10.0 mi Calm Calm - N/A   Clear
7:15 PM 80.6 °F 80.4 °F 54.7 °F 41% 29.99 in 10.0 mi SSE 3.5 mph - N/A   Clear
7:35 PM 79.9 °F - 54.0 °F 41% 29.98 in 10.0 mi SSE 4.6 mph - N/A   Clear
7:55 PM 79.5 °F - 57.4 °F 47% 29.99 in 10.0 mi Calm Calm - N/A   Clear
8:15 PM 78.3 °F - 58.3 °F 50% 29.98 in 10.0 mi Calm Calm - N/A   Clear
8:35 PM 77.7 °F - 60.3 °F 55% 29.99 in 10.0 mi Calm Calm - N/A   Clear
8:55 PM 77.0 °F - 58.1 °F 52% 29.98 in 10.0 mi Calm Calm - N/A   Clear
9:15 PM 75.4 °F - 58.1 °F 55% 29.98 in 10.0 mi ESE 3.5 mph - N/A   Clear
9:35 PM 73.2 °F - 59.2 °F 61% 29.99 in 10.0 mi Calm Calm - N/A   Clear
9:55 PM 72.7 °F - 58.3 °F 60% 30.00 in 10.0 mi Calm Calm - N/A   Clear
10:15 PM 72.9 °F - 57.7 °F 59% 30.00 in 10.0 mi Calm Calm - N/A   Clear
10:35 PM 71.1 °F - 58.1 °F 63% 30.00 in 10.0 mi Calm Calm - N/A   Clear
10:55 PM 71.2 °F - 57.6 °F 62% 30.00 in 10.0 mi South 3.5 mph - N/A   Clear
11:15 PM 71.8 °F - 54.9 °F 55% 30.00 in 10.0 mi SSE 3.5 mph - N/A   Clear
11:35 PM 70.9 °F - 55.4 °F 58% 30.00 in 10.0 mi SSE 3.5 mph - N/A   Clear
11:55 PM 71.6 °F - 54.5 °F 55% 30.01 in 10.0 mi Calm Calm - N/A   Clear